This demonstration page uses our WeatherBlox Daily Observations layout. Learn more.

Left ArrowRight Arrow

Hourly Observations for June 14, 2021

Temp ( °F °C ) Dew Point ( °F °C ) Humidity (%) Winds ( mph kmh ) Pressure ( in mb ) Visibility ( mi km ) Precip ( " mm )
12:53 am 00:53 Clear 64 17.8 62 16.7 93 93 N N/A 29.93 1013 10 16 N/A
1:53 am 01:53 Clear 63 17.2 61 16.1 93 93 N N/A 29.91 1013 10 16 N/A
2:53 am 02:53 Clear 62 16.7 60 15.6 93 93 WSW 3 6 29.92 1013 9 14 N/A
3:53 am 03:53 Clear 61 16.1 59 15 93 93 N N/A 29.91 1013 10 16 N/A
4:53 am 04:53 Clear 59 15 58 14.4 96 96 N N/A 29.91 1013 8 13 N/A
5:53 am 05:53 Clear with Mist and Fog 59 15 58 14.4 96 96 N N/A 29.91 1013 5 8 N/A
6:22 am 06:22 Sunny with Mist and Fog 59 15 58 14.4 96 96 N N/A 29.92 1013 1 1 N/A
6:34 am 06:34 Sunny with Mist and Fog 59 15 58 14.4 96 96 N N/A 29.92 1013 2 3 N/A
6:41 am 06:41 Sunny 60 15.6 59 15 96 96 N N/A 29.92 1013 7 11 N/A
6:53 am 06:53 Sunny 61 16.1 60 15.6 97 97 N N/A 29.90 1013 7 11 N/A
7:53 am 07:53 Sunny 67 19.4 60 15.6 79 79 WNW 3 6 29.90 1013 10 16 N/A
8:53 am 08:53 Sunny 72 22.2 61 16.1 68 68 VRB 3 6 29.92 1013 10 16 N/A
9:53 am 09:53 Sunny 77 25 59 15 54 54 WSW 6 9 29.90 1012 10 16 N/A
10:53 am 10:53 Sunny 81 27.2 59 15 47 47 VRB 7 11 29.88 1012 10 16 N/A
11:53 am 11:53 Sunny 85 29.4 60 15.6 43 43 VRB 6 9 29.87 1012 10 16 N/A
12:53 pm 12:53 Sunny 87 30.6 60 15.6 40 40 VRB 7 11 29.86 1011 10 16 N/A
1:53 pm 13:53 Sunny 88 31.1 60 15.6 39 39 W 10 17 29.84 1011 10 16 N/A
2:53 pm 14:53 Mostly Sunny 90 32.2 58 14.4 34 34 WNW 16 26 29.83 1010 10 16 N/A
3:53 pm 15:53 Sunny 89 31.7 50 10 26 26 WNW 16 26 29.82 1010 10 16 0.00 0.00
4:53 pm 16:53 Sunny with Light Rain 89 31.7 55 12.8 31 31 NW 16 26 29.82 1010 10 16 0.00 0.00
5:53 pm 17:53 Sunny 87 30.6 53 11.7 31 31 NW 16 26 29.81 1010 10 16 0.00 0.00
6:53 pm 18:53 Sunny 83 28.3 58 14.4 43 43 N 12 19 29.83 1010 10 16 N/A
7:53 pm 19:53 Sunny 81 27.2 54 12.2 39 39 NNW 12 19 29.85 1011 10 16 N/A
8:53 pm 20:53 Sunny 75 23.9 54 12.2 48 48 NNW 8 13 29.87 1011 10 16 N/A
9:53 pm 21:53 Clear 73 22.8 53 11.7 50 50 NW 8 13 29.89 1012 10 16 N/A
10:53 pm 22:53 Clear 73 22.8 51 10.6 46 46 NNW 12 19 29.92 1013 10 16 N/A
11:53 pm 23:53 Clear 70 21.1 52 11.1 53 53 NNW 8 13 29.94 1014 10 16 N/A

Powered by AerisWeather